RH
52 52 52 52 53 53 53 53 53 53 55 58 56 53 50 46 43 40 39 39 38 39 42 49 52 51 48 51 54 58 59 59 58 58 58 56 54 53 51 50 50 49 49 48 47 46 45 44 43 44 45 45 45 45 45 44 42 41 39 39 40 42 43 43 42 41 41 41 42 43 44 46 47 48 48 48 47 46 44 43 41 40 39 41 44 48
53 53 53 53 54 54 53 54 54 55 56 57 55 52 48 47 45 44 42 42 41 40 42 47 49 49 48 53 57 60 61 60 60 60 60 58 56 54 53 52 52 51 51 49 49 48 48 49 49 48 48 49 49 49 48 47 45 43 41 42 43 45 44 43 41 39 39 39 40 42 45 47 50 51 52 51 51 50 49 47 46 45 44 45 47 50
55 53 54 54 54 54 53 54 55 55 55 54 53 51 49 49 48 47 45 45 43 42 43 45 47 48 49 54 58 62 62 62 62 62 62 61 60 58 57 57 56 54 53 51 50 51 52 52 51 50 49 50 51 52 52 51 49 46 44 46 47 47 46 44 42 40 39 39 40 42 45 48 51 52 53 52 52 51 50 49 48 48 48 49 50 50
58 56 55 55 55 55 54 53 54 55 55 53 51 50 50 51 51 50 48 47 45 44 45 46 47 48 51 56 59 62 62 62 63 64 65 65 64 63 62 61 59 57 55 53 52 52 53 52 50 49 50 52 54 56 57 55 53 50 49 51 52 52 50 49 48 46 45 45 44 45 47 49 51 53 53 53 53 52 52 51 50 50 51 53 54 54
62 59 57 56 56 56 54 53 53 53 55 53 52 51 52 54 54 52 50 49 47 47 48 49 50 51 54 58 60 62 62 61 62 64 66 67 66 65 64 62 61 59 57 55 54 53 52 50 49 50 53 56 59 62 63 61 57 55 56 57 58 58 58 58 57 57 55 54 53 52 52 52 53 54 55 55 55 55 54 53 52 52 54 57 59 58
67 64 61 60 59 57 56 55 54 54 56 56 56 56 57 58 57 55 53 52 51 51 52 54 55 56 58 60 61 61 60 59 60 63 66 67 67 66 64 63 61 60 58 57 56 54 52 50 50 53 57 60 63 66 67 65 62 61 62 63 65 65 66 67 67 67 66 64 62 60 59 58 57 57 58 58 58 58 57 56 56 56 56 60 61 60
70 67 65 64 62 61 60 58 57 56 58 59 60 61 62 63 62 60 57 55 55 55 56 58 59 60 61 61 60 59 58 58 60 63 67 69 69 67 64 62 61 60 59 58 57 56 53 51 52 54 57 61 63 66 68 68 67 67 69 70 71 71 72 73 73 72 72 70 68 66 64 63 62 62 62 62 61 61 60 60 60 60 61 63 62 62
70 70 69 68 67 66 66 64 62 61 63 65 65 66 67 68 68 68 66 63 62 62 62 62 62 62 61 60 59 58 57 58 61 66 72 73 72 68 64 62 61 60 59 59 58 56 53 51 52 53 56 59 62 64 67 68 70 72 74 75 75 76 76 76 74 73 71 70 68 67 66 66 66 65 65 65 65 64 64 64 64 65 66 66 66 65
73 72 71 71 70 70 73 71 69 68 70 73 75 75 75 76 77 78 78 76 75 73 72 69 67 66 64 61 59 58 58 60 65 71 78 78 75 70 65 62 61 60 59 58 56 54 52 51 52 54 56 59 62 65 67 70 72 75 77 77 77 77 76 73 70 68 66 65 64 64 65 66 66 67 68 68 68 68 68 68 69 69 70 69 68 68
77 76 76 75 74 74 76 76 75 74 74 78 81 83 84 85 87 88 89 87 86 84 81 78 75 73 70 66 63 61 62 65 70 75 80 79 75 69 64 61 60 59 58 56 54 53 53 54 55 58 60 62 64 66 69 71 73 74 74 74 72 69 66 62 60 58 58 58 59 61 62 64 66 69 71 72 73 73 73 73 72 72 71 69 68 68
83 83 82 82 82 81 80 79 78 78 76 79 83 87 88 90 91 92 94 93 92 90 88 85 82 79 76 72 69 67 67 69 72 75 76 74 70 65 61 59 58 57 56 55 54 54 55 58 60 62 64 66 67 68 68 69 69 67 64 60 56 51 47 46 46 48 50 52 55 57 59 62 67 72 76 78 80 81 80 77 75 72 70 69 67 67
90 89 88 90 91 90 88 87 85 82 81 85 89 91 90 90 90 91 92 93 93 93 91 89 87 84 81 77 74 71 69 69 70 71 69 66 63 61 59 58 57 56 56 55 56 58 59 61 62 63 63 64 65 65 65 63 60 56 52 46 42 38 37 37 39 41 45 48 51 54 57 62 68 73 79 83 85 85 82 78 74 71 68 66 66 66
94 94 94 95 96 96 95 96 94 92 91 95 97 96 92 91 89 88 89 91 91 91 91 91 91 89 86 81 77 73 69 67 66 65 63 60 59 58 59 58 58 57 57 57 58 59 60 60 60 60 60 60 59 59 58 55 52 48 44 40 37 36 37 38 40 42 45 47 50 53 56 60 65 70 74 77 79 78 77 73 70 67 65 64 64 64
95 95 96 97 98 99 99 99 99 98 98 99 99 99 96 93 89 86 86 88 88 89 90 93 93 91 88 83 78 73 69 65 62 61 60 59 59 59 59 59 58 58 58 58 58 58 58 58 57 57 57 56 54 53 51 48 45 43 40 38 38 39 41 43 44 46 48 50 52 55 57 60 63 66 68 70 71 71 71 69 68 66 65 64 64 65
97 97 97 99 99 100 100 100 100 100 99 99 99 99 99 96 91 86 83 85 87 88 90 93 91 88 83 80 76 71 67 63 62 61 60 60 59 59 59 58 58 58 58 57 57 57 56 55 55 54 53 52 50 48 46 44 42 40 40 40 41 42 43 44 45 47 50 53 56 58 60 62 63 65 67 69 70 71 72 73 73 72 70 69 70 71
98 98 98 99 100 100 100 100 100 100 100 98 98 99 98 97 95 92 87 86 87 87 89 90 87 83 78 74 71 68 65 62 62 61 61 60 60 59 59 58 57 57 57 56 56 56 54 53 52 50 49 47 45 44 42 42 41 42 43 43 43 43 43 44 46 49 52 54 55 56 58 60 62 65 67 69 71 74 76 77 78 78 77 78 80 82
99 99 98 99 99 100 100 100 99 99 100 99 98 97 95 95 95 95 94 92 90 89 87 87 87 85 83 76 73 72 70 66 64 62 62 61 60 60 59 58 58 57 57 56 55 53 50 48 47 46 45 44 43 42 42 43 44 44 45 45 44 44 44 46 48 51 52 53 53 53 54 55 58 60 62 65 68 71 74 77 79 80 79 81 83 85
100 100 100 100 100 100 100 100 100 100 99 100 99 99 99 98 97 96 95 96 95 94 92 89 87 88 90 85 82 79 77 74 71 70 67 65 63 62 60 58 58 57 56 53 49 46 45 44 44 43 43 43 44 44 45 45 45 45 44 44 45 46 48 50 51 51 51 50 49 49 49 51 53 54 56 59 62 66 69 72 76 79 80 81 83 84
100 100 100 100 100 100 100 100 100 100 100 100 100 99 99 99 98 97 98 99 99 99 99 98 96 94 94 92 89 86 83 80 79 78 76 74 70 65 62 59 57 55 52 46 44 44 44 44 44 44 45 47 47 46 46 46 45 45 45 46 48 50 52 52 51 50 49 48 47 47 49 50 50 49 49 51 53 57 62 67 71 75 79 81 82 82
100 100 100 100 100 100 100 100 100 100 99 99 99 99 99 99 98 98 98 98 98 99 99 99 99 99 98 95 92 89 86 84 84 83 83 81 76 70 65 62 58 53 46 45 45 46 46 45 45 46 49 52 51 49 48 48 48 48 49 50 51 52 53 51 50 48 47 47 48 49 51 50 48 45 43 42 44 48 53 59 64 68 73 76 77 77
100 100 100 100 100 100 100 100 99 98 98 97 96 96 98 98 98 98 97 97 97 97 96 97 98 98 97 96 94 91 88 87 86 85 83 81 76 70 64 59 53 47 43 47 48 48 46 45 45 46 49 50 49 49 49 49 49 49 50 50 50 50 49 48 48 47 47 48 48 48 48 47 45 42 39 38 38 40 45 50 56 61 66 69 70 70
99 99 99 98 98 99 99 97 95 95 95 94 94 94 95 96 98 98 97 96 96 96 95 96 96 96 95 95 93 89 86 84 83 81 79 76 72 66 59 55 50 48 49 49 49 47 46 45 45 46 48 49 51 52 52 50 49 49 48 48 47 48 48 48 48 48 47 47 46 45 44 42 41 39 36 35 35 37 40 46 51 56 60 62 63 64
95 96 96 96 96 96 96 94 93 92 91 91 91 92 93 94 95 95 95 95 95 94 94 93 92 92 91 90 87 82 77 76 75 74 73 71 66 61 58 56 55 54 54 51 49 48 46 46 46 47 48 50 52 53 53 51 49 48 46 46 47 48 49 48 48 47 46 45 44 43 42 41 39 37 34 33 33 35 38 42 46 50 54 56 58 58
92 92 93 93 94 94 93 93 93 92 90 89 88 88 88 89 90 91 92 92 91 91 90 89 88 87 87 84 80 76 72 70 70 71 71 68 64 61 60 58 57 56 53 51 50 48 47 46 46 47 47 49 50 51 52 50 48 47 46 48 48 49 48 47 46 45 44 44 43 42 40 39 38 36 35 34 34 35 36 39 42 46 50 52 53 53
91 92 93 94 94 94 95 95 95 94 93 91 89 87 84 83 83 84 85 86 86 86 86 85 85 85 84 81 78 76 73 70 70 71 72 69 65 61 58 56 54 53 52 51 50 49 48 48 48 48 48 48 49 50 51 50 48 47 48 48 48 48 47 46 45 44 42 42 41 39 38 37 37 37 37 38 38 38 38 39 41 44 48 49 48 48
94 95 96 97 97 97 97 97 97 97 97 95 92 90 87 84 81 79 79 81 82 82 83 84 85 85 84 82 79 76 72 70 70 70 69 64 61 58 56 56 55 53 52 52 51 50 48 49 49 50 49 49 48 49 50 49 48 48 48 48 47 46 45 44 43 42 40 39 38 37 36 36 37 38 39 41 42 43 42 41 42 44 46 45 43 42
92 93 95 95 95 96 96 97 97 97 97 96 95 93 90 87 85 84 86 87 86 84 83 86 87 87 85 85 82 78 72 71 70 68 65 60 58 58 60 59 58 56 55 53 52 51 49 50 50 50 50 49 49 49 50 49 49 49 48 47 46 45 44 43 42 40 38 38 37 36 36 37 38 40 42 44 45 45 44 43 44 45 46 43 40 38
84 86 87 88 89 92 95 97 96 95 95 94 94 93 90 89 89 90 93 93 91 88 86 87 88 89 87 87 84 79 75 73 71 69 65 62 61 62 64 62 61 60 58 56 55 53 52 52 52 51 51 50 50 49 49 49 48 48 47 47 46 45 43 41 39 38 37 36 35 35 36 37 40 42 44 45 45 44 42 44 47 50 51 48 44 41
72 76 78 80 84 87 91 92 91 89 89 90 90 89 88 88 89 90 92 91 90 90 91 90 89 89 88 87 84 80 77 76 74 70 66 64 66 67 67 64 61 60 59 57 55 54 54 53 53 52 52 51 50 50 50 49 49 48 47 46 45 43 40 38 36 34 33 33 33 34 36 38 40 42 43 42 42 41 41 48 55 60 60 57 53 49
67 70 73 76 80 84 87 86 85 84 85 85 85 85 85 85 86 87 87 87 87 88 90 89 88 88 87 86 84 83 82 81 78 74 69 68 70 71 67 63 61 60 59 57 58 59 57 54 53 54 53 52 52 51 51 50 49 47 45 43 41 38 35 33 31 31 31 31 32 34 37 39 40 41 41 41 42 44 47 57 65 70 71 69 65 60
70 73 75 78 80 82 82 80 80 79 79 78 78 77 77 78 79 80 82 82 83 84 84 85 85 85 85 85 87 89 90 86 82 78 72 71 73 72 67 64 62 61 60 60 64 66 63 57 56 56 54 53 52 51 50 48 45 43 41 37 34 32 30 30 31 32 33 35 37 38 40 41 42 43 45 47 49 53 59 67 74 79 80 78 74 69
74 75 77 78 78 78 78 77 76 76 75 73 71 69 67 66 67 69 73 76 78 80 81 83 83 83 82 84 88 92 93 88 85 81 77 74 74 73 69 67 64 63 61 60 63 68 73 68 61 55 52 51 49 48 45 42 40 37 35 33 31 31 34 37 40 42 42 43 44 44 45 46 48 50 53 55 59 63 68 74 79 83 84 81 77 73
73 74 75 75 75 75 75 75 74 73 72 70 67 63 58 55 54 54 56 62 69 74 78 79 81 81 81 82 86 89 90 86 84 82 79 76 75 74 72 70 69 68 66 63 63 66 72 70 63 55 50 47 45 42 40 37 36 36 36 37 39 42 48 51 52 52 51 51 51 52 53 54 56 58 59 62 65 69 73 77 79 80 82 81 79 75
72 72 73 73 73 73 73 73 72 70 69 66 62 59 55 52 50 48 47 50 56 63 70 75 78 80 81 83 85 86 87 83 81 79 78 77 77 77 76 75 75 75 72 71 70 69 69 70 68 64 60 53 47 44 42 41 42 44 47 52 55 59 62 61 59 58 57 58 60 61 61 62 62 62 62 63 65 69 73 74 74 74 75 79 80 79
72 72 71 72 72 72 71 70 69 67 64 62 61 59 57 55 54 53 54 55 58 61 67 70 74 78 80 82 84 84 84 81 79 78 76 77 78 78 77 78 80 80 78 79 78 77 76 76 76 75 73 67 60 54 52 53 55 58 61 64 67 68 68 65 63 63 64 66 67 68 67 65 64 63 61 60 62 66 69 69 68 68 69 75 80 82
72 72 71 71 71 71 70 69 67 65 63 63 63 63 63 63 63 64 65 68 70 71 72 72 73 76 79 81 81 82 82 81 79 78 77 77 77 76 76 78 80 81 80 82 83 83 82 81 81 80 78 76 71 66 62 64 66 68 69 70 70 69 67 66 67 69 71 71 71 70 69 66 63 60 58 57 59 62 64 64 65 67 70 73 77 80
72 73 73 73 72 72 71 70 68 68 67 68 69 69 70 71 72 73 73 75 77 79 80 79 79 79 79 79 80 81 81 81 80 80 78 77 76 75 74 78 80 81 81 82 83 83 82 82 81 80 79 77 74 72 70 71 72 73 72 71 71 70 69 69 71 72 73 73 72 70 67 63 59 56 54 56 59 62 64 66 68 70 73 74 74 76
74 75 76 75 75 74 73 73 73 73 73 73 73 74 76 77 77 76 75 75 76 78 80 81 80 80 79 78 78 77 77 78 78 78 78 77 77 76 74 77 78 80 80 80 81 81 81 81 81 81 79 76 75 74 74 74 74 74 74 73 73 72 72 72 73 74 74 73 71 68 63 58 55 54 56 60 64 67 70 71 72 74 75 75 74 74
76 77 78 78 77 77 77 77 77 76 76 76 77 78 78 78 77 76 74 73 73 73 74 74 74 74 73 74 74 74 74 74 74 75 75 75 75 75 75 75 75 76 77 79 79 80 80 80 80 80 78 77 76 75 75 76 75 75 75 75 75 75 74 74 74 74 74 72 68 64 59 55 55 58 62 66 70 73 75 77 77 78 80 80 79 77
78 78 78 78 76 76 76 77 77 77 78 80 80 80 77 76 76 75 74 72 71 71 71 71 71 70 70 70 70 71 71 72 72 72 73 73 74 74 74 74 74 75 77 77 78 78 78 79 79 78 77 76 76 75 75 75 74 74 74 76 76 76 76 75 74 73 72 68 64 60 57 57 60 64 68 71 74 77 79 80 81 82 83 85 85 84
78 77 76 73 71 69 70 73 77 80 82 82 80 78 77 76 75 74 73 71 70 69 70 70 69 68 67 69 70 70 70 70 71 72 72 72 73 73 73 73 74 76 77 78 80 81 80 82 81 79 78 80 79 78 75 74 73 73 75 77 77 77 76 74 72 70 67 63 59 58 59 62 66 69 72 74 77 79 81 83 84 85 85 87 87 87
77 75 72 69 66 64 63 68 74 79 81 80 79 79 78 78 78 77 76 73 73 72 71 70 69 68 65 66 68 70 71 70 71 71 71 72 72 72 72 71 72 73 76 77 78 80 83 84 86 88 91 90 89 87 82 78 78 78 78 77 74 72 71 70 69 67 64 61 59 60 63 67 70 72 75 77 79 81 81 83 84 85 86 85 84 82
74 72 69 66 63 62 61 64 69 75 77 78 78 78 78 78 78 78 76 75 75 75 75 75 74 72 70 68 67 67 69 70 70 71 71 71 70 70 70 70 70 70 70 70 71 71 72 75 77 79 79 82 85 86 85 81 80 78 75 72 71 71 71 71 69 67 63 62 62 64 67 70 73 76 78 79 81 81 81 81 80 80 79 78 75 73
72 70 67 66 66 65 63 64 68 71 74 74 74 74 75 77 77 77 76 75 74 74 75 75 75 73 73 72 70 69 67 69 71 72 71 71 70 69 69 69 69 70 70 70 71 71 70 70 71 71 71 73 74 75 76 77 77 75 73 72 72 72 73 72 69 66 64 64 66 68 71 74 76 78 78 79 79 79 77 75 73 70 69 67 66 64
70 68 66 67 69 70 70 69 69 69 70 70 70 70 72 75 77 76 76 74 73 73 73 74 74 73 74 74 73 72 70 70 70 72 72 71 70 70 69 69 69 69 69 70 70 71 71 70 70 70 69 70 70 71 72 72 72 71 71 70 69 68 68 67 66 66 68 70 71 72 74 76 77 77 77 76 75 73 71 69 67 65 63 61 60 59
66 64 64 67 70 73 76 75 73 70 69 70 70 71 71 75 77 77 76 75 73 73 72 73 73 73 72 72 72 72 72 72 72 72 72 71 71 70 70 69 69 69 69 69 70 70 70 70 70 70 69 69 69 69 68 68 68 68 67 65 64 64 64 66 68 71 73 74 75 76 77 76 75 74 73 72 71 69 67 65 64 63 61 59 57 56
63 63 65 69 72 75 77 78 77 76 74 74 75 75 74 76 78 78 75 74 73 73 73 73 73 72 71 71 70 71 72 73 74 74 73 72 72 72 71 70 70 69 69 68 68 69 69 69 69 69 69 69 69 68 67 66 66 66 66 65 67 69 72 73 74 75 75 75 75 76 75 73 71 71 71 71 70 68 66 65 63 61 59 57 55 54
65 66 69 72 75 77 78 78 79 78 77 78 78 78 78 77 79 79 73 72 72 72 73 75 75 75 73 71 70 70 71 73 73 73 73 73 72 72 72 71 70 69 69 69 69 69 68 68 68 68 68 69 69 68 68 67 67 67 69 70 73 75 76 76 75 74 73 72 72 71 69 69 70 72 73 72 71 69 67 65 61 58 56 55 54 53
69 71 75 77 78 78 79 80 79 79 78 79 79 79 78 77 78 77 74 72 71 72 73 75 77 77 77 74 71 70 70 71 72 72 72 72 72 72 71 70 70 69 68 68 69 68 67 65 65 65 66 66 67 67 68 68 69 70 71 72 73 74 74 73 72 70 69 68 67 66 66 67 69 71 73 74 73 71 68 65 61 58 55 55 54 54
71 75 79 81 81 81 80 80 79 78 78 79 80 80 78 77 76 75 75 74 74 73 73 74 75 76 78 76 74 71 70 69 69 69 71 71 72 71 71 70 69 68 68 69 69 69 67 65 62 60 62 65 68 70 71 70 70 69 68 68 68 68 69 69 68 67 67 67 68 67 67 66 66 68 72 75 75 73 70 66 63 60 59 58 57 56
73 76 79 81 82 81 81 80 79 78 78 80 81 81 79 77 76 76 76 76 75 75 74 73 73 74 77 78 77 74 72 70 68 68 69 70 70 71 70 70 69 68 68 69 69 69 68 68 64 61 59 61 65 69 69 67 66 65 64 64 65 66 68 69 70 70 71 71 71 70 68 67 68 70 75 77 78 76 72 69 67 66 65 64 63 61
Wind_Speed
15 13 12 11 9 9 10 14 20 24 26 26 25 24 23 21 19 18 17 16 16 16 17 18 18 17 16 16 15 15 14 13 11 10 10 9 8 7 6 5 4 3 2 1 0 0 1 2 2 2 3 3 4 5 5 5 6 6 5 5 5 5 6 7 7 8 9 9 9 10 10 9 9 9 9 9 9 10 10 10 10 10 11 11 11 12
17 16 15 13 11 10 10 13 20 25 27 27 27 26 24 22 21 20 18 17 17 17 18 19 19 19 18 18 17 16 15 14 13 12 11 10 9 9 8 7 6 4 3 3 2 2 2 1 1 2 3 4 4 5 6 6 6 6 5 4 4 5 6 7 8 9 10 10 10 11 11 10 10 10 10 10 11 11 11 11 11 11 12 12 12 12
17 17 16 15 13 11 11 13 19 24 27 27 27 26 25 24 23 22 20 19 19 19 19 20 20 20 20 20 19 18 17 16 15 14 13 12 11 10 9 7 6 5 4 4 4 3 3 1 1 2 3 4 5 5 6 6 6 5 3 3 4 5 6 8 9 10 10 11 11 11 11 11 11 11 12 12 12 12 12 13 13 13 13 13 13 13
17 17 17 16 14 12 11 12 16 22 25 26 25 25 25 25 25 24 22 21 21 21 21 22 22 22 22 21 21 20 19 18 16 15 14 13 12 10 9 8 7 6 6 5 5 4 4 2 0 2 3 4 5 5 6 6 5 3 2 3 4 5 7 8 9 10 10 11 11 11 12 12 12 12 13 13 14 14 14 14 14 14 13 14 14 14
16 17 17 17 15 14 12 12 14 18 22 23 24 24 24 25 25 25 24 23 23 23 23 23 23 23 23 23 22 21 20 19 17 16 15 14 13 11 10 9 8 8 7 7 6 5 4 2 1 1 2 3 4 5 5 4 3 2 2 3 4 5 6 8 9 9 10 10 11 11 11 12 12 13 13 14 14 15 15 15 15 15 14 14 14 14
15 16 17 17 16 15 13 12 13 16 19 20 21 22 22 23 24 24 24 24 24 23 23 23 23 22 23 23 22 22 20 19 18 16 15 14 13 12 11 11 10 9 8 8 7 6 5 4 2 1 0 1 2 3 3 2 1 0 1 2 3 4 5 6 7 8 9 9 10 10 11 11 12 13 14 14 15 15 15 16 15 15 15 15 15 15
15 16 17 17 17 16 14 13 14 15 16 16 17 18 19 19 20 20 20 21 22 23 23 22 22 22 22 22 22 21 20 18 17 16 16 15 14 13 13 12 11 10 10 9 8 8 7 6 5 5 4 4 4 4 4 3 3 2 2 1 2 3 4 5 6 6 7 8 8 9 10 11 11 12 13 14 15 15 16 16 16 16 16 16 16 16
14 15 15 15 16 16 16 14 13 14 14 13 13 13 14 15 15 16 17 19 20 21 22 22 22 22 22 22 21 21 20 18 17 17 16 16 16 15 14 13 12 12 11 11 10 9 9 8 8 8 7 7 7 7 7 6 5 4 4 3 3 4 4 5 5 6 6 7 7 8 9 10 11 11 12 13 14 14 15 15 15 15 15 16 16 16
11 11 12 12 13 14 16 15 13 13 14 14 13 13 13 13 13 14 15 17 18 19 20 21 21 21 21 21 20 20 19 18 18 17 17 17 17 16 15 14 13 13 12 12 11 10 10 9 9 9 9 9 9 9 8 8 6 5 5 4 4 5 5 5 6 6 7 7 7 8 8 9 10 10 11 12 12 13 13 14 14 15 15 15 16 16
8 8 8 9 10 12 15 16 14 13 15 15 15 15 15 14 14 14 15 16 18 19 19 20 19 19 19 19 18 18 18 18 18 17 17 17 17 16 15 14 14 13 13 12 11 11 10 10 10 9 9 9 9 9 9 8 7 6 5 5 5 6 6 7 7 8 8 8 8 8 8 9 9 9 9 10 11 12 13 13 14 14 15 16 16 17
6 6 6 5 6 9 13 15 15 14 14 14 14 15 16 17 17 17 16 16 17 19 19 18 18 17 16 15 15 16 17 17 18 18 17 17 16 16 15 14 14 13 13 12 11 11 11 10 10 10 9 9 10 10 9 8 7 6 6 6 7 8 9 9 9 9 9 9 9 9 8 8 8 8 8 9 11 12 13 13 14 15 16 17 18 18
5 5 5 5 5 6 9 11 13 14 13 11 11 12 14 17 19 20 19 18 18 18 17 16 15 15 13 13 13 14 16 18 18 18 17 16 16 15 14 13 13 12 12 11 11 11 11 10 10 10 9 9 9 10 9 8 7 7 7 7 8 9 9 9 9 9 9 9 9 9 9 8 7 7 8 9 11 12 13 15 16 17 18 18 19 20
5 5 5 5 6 6 7 7 8 10 10 8 7 8 11 15 19 21 21 21 21 20 18 15 13 12 12 13 14 15 16 18 18 18 17 15 14 13 13 12 12 12 11 11 11 10 10 9 9 8 8 8 8 8 8 7 7 7 7 7 8 7 7 7 7 7 8 8 9 9 9 9 8 8 9 10 11 12 14 15 16 17 18 19 20 20
4 4 5 5 6 6 6 6 7 7 7 7 8 9 11 13 17 20 21 21 22 22 20 16 12 9 10 12 14 15 17 18 18 17 16 14 13 13 12 12 12 12 11 11 10 10 9 8 7 6 7 7 7 7 7 6 6 6 5 5 5 4 4 5 5 6 6 7 7 7 8 8 8 9 9 10 11 12 13 14 15 16 17 18 19 20
5 5 5 5 5 5 6 7 7 7 7 7 8 8 8 10 13 16 18 20 21 21 20 16 13 10 10 11 13 15 16 17 16 15 14 13 13 12 11 11 11 11 11 10 10 9 8 7 7 6 6 7 8 7 6 6 5 4 3 3 3 3 4 5 5 5 5 5 5 5 6 6 7 7 7 8 9 10 11 12 13 14 15 17 17 18
7 7 6 5 5 5 6 7 8 8 7 6 6 6 6 7 9 11 13 16 18 18 18 16 13 11 10 11 11 12 13 14 14 13 12 11 10 10 9 9 9 10 9 9 8 8 7 7 7 7 7 7 7 6 5 4 3 3 3 3 4 5 5 6 6 5 5 4 4 5 5 5 5 6 6 7 7 8 9 10 10 12 13 14 14 15
8 8 7 7 6 6 7 7 8 8 8 7 5 5 7 8 8 9 9 11 13 15 15 15 10 7 7 9 10 9 10 10 11 11 10 9 8 8 8 7 7 8 8 7 6 5 6 5 5 6 6 5 5 4 4 4 3 3 3 5 6 6 6 6 5 4 4 4 4 5 5 5 5 5 6 6 6 7 7 8 9 10 11 12 13 13
7 8 8 7 6 6 7 8 8 8 7 7 6 5 5 5 6 7 8 8 9 11 12 14 11 7 5 5 7 8 8 8 9 9 8 6 6 6 6 6 6 6 5 4 4 4 5 5 5 5 5 5 4 4 4 3 3 4 5 6 6 6 5 4 4 4 4 4 5 6 6 6 6 6 7 7 7 7 7 8 8 9 10 11 12 12
8 8 8 8 7 8 8 8 8 8 8 7 7 7 7 6 5 6 6 6 6 7 7 7 7 7 6 5 6 7 7 8 8 8 6 5 4 4 5 5 5 4 3 4 5 6 6 6 6 6 5 4 4 3 3 4 5 6 6 5 5 4 4 4 4 5 6 6 7 7 8 8 8 8 8 8 8 8 8 8 8 9 9 10 11 12
9 9 9 8 8 8 8 8 8 8 7 7 7 8 9 9 8 8 8 8 8 7 7 7 6 5 5 5 5 6 6 7 7 6 5 4 4 4 4 4 4 3 3 5 6 7 7 7 7 6 5 4 3 4 4 4 4 4 4 3 3 4 4 5 6 7 7 8 8 9 8 8 9 9 9 9 9 9 9 9 9 10 10 11 12 12
10 10 10 10 9 8 7 7 7 7 7 6 7 8 10 10 10 10 9 9 9 8 8 7 7 6 5 4 4 4 4 5 5 4 3 3 4 4 3 4 4 3 5 7 8 8 8 7 6 5 4 3 3 3 3 3 3 3 3 3 4 5 6 7 7 8 8 8 9 9 9 10 10 10 10 10 10 10 10 10 10 11 11 11 12 12
10 9 9 9 9 8 6 7 7 6 6 6 6 7 8 8 9 9 9 9 9 9 8 7 5 4 3 3 3 3 3 3 3 3 2 1 3 4 4 4 4 4 6 8 8 8 7 6 5 4 4 3 3 3 3 2 2 3 3 4 5 5 6 7 7 7 8 8 9 10 10 11 11 11 11 11 11 11 11 11 11 11 12 12 12 13
10 9 8 8 8 7 7 7 7 6 6 6 5 5 5 5 5 5 5 6 6 6 5 4 3 2 3 4 4 3 3 2 2 2 2 2 3 3 4 5 5 5 7 8 8 7 6 5 4 4 4 3 3 3 2 2 2 3 4 4 5 5 6 6 7 7 8 9 10 10 11 12 12 12 12 12 12 11 11 11 12 12 13 13 13 13
10 10 9 8 8 8 7 7 7 7 6 6 6 5 4 3 2 2 1 1 2 2 2 1 2 2 3 4 4 4 3 2 2 2 3 4 4 3 4 5 6 6 7 7 7 7 5 5 5 5 5 4 3 3 2 2 3 3 3 3 4 4 5 5 6 7 9 10 10 11 12 12 13 13 13 13 13 12 12 12 13 13 14 14 14 14
11 10 10 9 8 7 7 6 6 6 6 6 5 5 5 4 4 4 4 4 4 4 3 3 2 3 3 5 6 5 4 3 3 4 4 5 4 4 5 6 6 6 6 6 7 7 6 5 5 6 6 5 4 3 3 3 3 3 3 3 4 4 5 6 8 9 10 11 11 12 13 13 13 13 13 14 13 13 13 13 14 14 14 15 15 15
10 10 10 9 9 8 7 7 6 5 5 4 4 4 3 3 4 4 4 3 3 3 3 2 2 2 3 5 6 6 5 4 4 4 4 5 4 4 5 5 4 4 5 6 7 7 6 6 6 6 6 6 5 4 3 3 3 4 4 4 5 6 7 8 9 11 12 12 13 13 13 14 14 14 14 14 14 14 14 14 14 14 15 15 15 15
10 10 10 9 9 9 9 8 8 7 7 5 3 1 0 0 0 0 1 1 1 0 1 2 2 2 4 5 5 5 5 4 3 2 2 4 4 4 3 3 2 2 3 4 6 7 7 6 6 6 6 6 5 4 3 3 3 4 5 6 7 8 9 10 11 13 13 14 14 14 14 14 14 14 14 14 14 14 14 14 14 15 15 16 16 15
7 7 7 7 8 8 9 11 11 10 9 8 6 4 4 4 4 4 4 3 2 3 5 5 4 3 3 4 4 5 6 4 3 1 1 2 3 4 3 1 1 1 2 4 6 7 7 6 6 6 6 6 6 5 4 4 5 5 6 7 8 10 11 12 14 14 15 15 15 15 15 15 14 14 14 14 14 14 14 14 14 15 15 15 16 15
3 4 4 5 6 7 8 10 10 10 10 9 8 7 7 7 7 7 6 4 4 5 5 5 4 3 3 4 5 6 5 4 3 1 0 1 2 3 3 1 1 2 3 4 6 7 8 8 7 6 6 6 5 5 5 5 6 7 8 9 10 12 13 15 16 16 16 16 16 16 15 15 14 14 14 14 14 14 13 13 14 14 15 15 15 15
4 4 5 5 7 8 8 9 9 10 10 10 9 9 9 9 9 9 8 6 6 6 6 5 4 3 4 5 5 4 3 4 3 2 1 1 3 4 2 1 1 2 3 3 3 4 5 7 8 8 6 5 5 5 5 6 7 9 10 12 13 15 16 17 17 17 17 17 16 15 15 14 14 13 13 13 13 12 12 12 13 14 14 15 15 15
8 8 9 9 9 10 10 10 10 10 10 10 10 11 11 11 10 10 8 7 7 7 7 6 5 4 3 3 2 1 2 4 4 2 1 2 3 3 3 2 2 2 2 1 1 1 2 4 6 7 6 5 5 6 7 8 10 12 14 15 16 17 17 17 16 16 16 15 15 14 14 13 13 12 12 12 12 11 11 12 12 14 14 15 15 15
11 11 12 12 11 11 11 11 11 10 10 10 10 11 11 11 10 9 8 8 7 7 7 7 6 5 4 4 3 2 2 4 4 3 1 2 3 3 3 3 3 3 3 1 1 1 1 2 2 3 5 6 8 9 10 12 14 15 16 16 16 16 15 14 14 14 14 14 13 13 12 12 12 12 12 12 12 12 12 12 13 14 14 15 15 16
12 12 12 12 12 12 12 12 11 11 10 10 10 10 10 10 9 8 7 7 6 5 5 6 6 6 6 6 5 5 4 4 4 3 2 2 2 3 3 2 2 2 2 2 3 4 3 3 4 6 9 12 13 14 14 15 15 14 14 13 12 12 12 12 12 12 12 12 12 12 12 12 12 13 13 13 13 13 13 13 13 14 14 14 15 15
12 12 12 11 12 12 12 11 11 11 11 10 11 11 10 9 9 8 7 6 5 4 4 4 5 6 6 6 6 5 4 3 3 3 3 3 2 2 2 1 1 1 2 2 3 4 4 5 5 8 12 15 16 15 14 13 12 11 10 9 9 10 11 11 12 12 12 12 12 12 12 13 13 14 15 15 15 14 14 14 14 14 13 13 14 14
11 11 11 11 11 11 11 11 11 11 11 12 12 11 10 9 8 7 6 5 4 3 3 2 3 3 4 5 5 4 3 2 2 2 3 3 3 2 2 1 1 2 2 2 2 3 3 4 6 7 9 12 13 13 11 9 8 8 8 8 9 10 11 11 11 12 12 12 12 13 13 14 15 16 16 17 16 16 15 15 14 13 12 12 12 13
11 11 11 11 11 11 11 11 11 11 12 12 12 11 10 9 8 7 6 4 4 3 2 2 2 2 2 3 3 3 3 2 2 2 3 4 4 3 3 2 3 3 3 3 3 3 3 4 6 7 8 8 9 9 8 8 7 8 8 9 9 10 10 10 10 11 11 12 13 14 14 15 16 17 17 17 16 16 15 15 14 13 13 12 11 11
11 12 12 12 12 12 12 11 12 12 12 12 11 10 9 9 8 7 6 4 3 3 3 3 2 2 2 2 2 2 2 2 2 2 3 4 4 4 4 4 4 4 4 4 3 4 4 5 6 7 7 6 6 6 7 9 9 9 10 10 11 11 10 9 9 10 11 12 14 15 16 16 17 17 17 16 16 15 15 14 14 14 14 13 13 12
11 12 12 12 12 12 12 12 12 12 11 10 10 9 8 8 7 7 6 5 3 3 2 2 3 3 2 2 2 1 1 1 1 2 2 3 4 4 4 4 4 4 4 4 4 5 5 5 5 4 5 6 7 8 10 10 11 11 12 12 11 11 10 9 9 10 11 13 15 16 17 17 18 17 17 16 16 16 16 16 16 15 16 15 15 14
11 12 12 12 12 11 11 11 11 10 9 8 7 7 6 6 6 6 6 5 4 4 3 2 2 2 2 2 2 2 1 1 0 1 2 2 2 3 4 4 4 4 5 5 5 6 6 6 6 5 6 7 9 10 10 10 11 12 12 13 12 10 9 8 9 11 13 15 16 17 18 18 17 17 16 16 17 18 18 18 18 17 17 17 17 16
11 11 11 11 11 10 10 9 8 7 7 6 5 4 4 5 5 5 5 5 5 4 4 4 3 2 2 2 2 3 2 2 1 1 1 1 1 2 3 3 3 4 4 5 6 6 7 8 8 8 8 8 9 10 10 10 11 11 12 12 11 10 9 10 11 13 14 16 17 19 19 18 17 17 17 17 18 18 18 18 18 17 17 17 17 18
11 11 11 10 9 8 8 7 6 5 4 4 4 4 4 5 6 6 6 5 5 5 4 4 3 3 3 3 3 3 3 3 2 2 1 1 1 1 2 2 2 3 3 4 5 6 7 8 9 9 9 10 10 11 11 11 11 10 10 10 11 11 12 13 13 14 16 17 18 18 18 18 18 18 18 18 18 18 18 17 17 17 16 16 16 16
10 10 10 9 9 8 7 5 4 3 3 3 4 4 5 6 6 7 7 7 7 8 7 7 7 6 5 4 3 3 3 3 3 3 2 2 1 2 2 2 2 2 2 3 4 5 6 6 7 8 8 9 9 10 11 11 10 10 10 10 12 14 14 14 14 15 16 18 18 17 17 18 18 19 19 19 19 18 17 17 16 15 15 15 15 16
9 9 8 8 8 7 6 5 4 4 4 4 4 5 5 6 6 7 7 8 8 8 8 8 8 8 8 7 5 4 3 3 3 3 3 2 2 2 2 2 3 3 3 3 4 4 5 6 7 7 8 8 9 9 10 11 11 11 11 11 12 13 12 13 15 17 18 18 17 17 17 17 18 19 19 19 18 17 17 16 16 15 15 16 16 17
8 7 7 7 7 7 7 7 7 6 6 6 6 6 5 6 6 7 7 8 8 8 8 8 8 8 8 9 8 7 5 4 3 3 3 3 3 3 3 3 3 3 4 4 5 5 5 6 7 8 8 9 9 11 12 13 13 12 12 12 13 13 13 14 17 18 18 17 16 15 16 17 18 18 19 18 17 17 17 17 17 18 18 19 19 19
7 7 7 7 7 7 8 9 8 7 7 7 6 6 6 6 6 6 7 7 7 7 8 8 8 8 8 9 9 9 8 6 4 4 4 4 3 3 3 3 3 4 4 4 5 5 6 7 8 9 9 10 11 12 13 13 13 14 14 14 14 15 16 16 16 16 16 16 15 15 16 16 17 18 18 18 18 19 19 20 20 21 21 22 22 22
7 7 7 6 6 7 7 8 8 7 7 7 7 7 6 6 6 6 6 7 7 7 7 7 7 8 8 8 8 9 9 8 8 7 6 6 5 4 4 4 4 4 4 5 5 6 6 7 8 9 9 11 12 13 13 13 13 14 14 14 14 14 15 14 14 13 13 14 14 14 15 15 16 17 19 20 21 21 22 22 22 22 23 24 24 23
8 8 7 7 6 6 6 6 7 7 7 8 8 7 7 7 7 7 7 7 7 7 7 7 7 7 8 8 8 8 7 8 8 9 8 8 7 7 6 5 5 5 5 6 6 6 7 7 7 8 9 10 11 12 12 12 12 12 13 13 13 14 14 14 13 12 11 12 13 13 14 16 17 19 20 21 22 22 23 23 23 23 23 24 24 23
8 8 7 7 6 6 6 6 6 7 7 7 7 7 7 7 8 8 8 8 8 7 7 8 8 8 8 8 7 7 6 7 7 8 9 8 8 8 7 7 7 7 7 7 7 7 7 6 6 7 8 9 10 11 11 11 11 11 12 12 12 13 13 12 11 11 11 11 12 13 15 17 18 19 20 21 21 22 22 23 23 24 23 23 22 23
8 7 7 6 6 6 7 7 7 7 7 7 7 7 7 7 7 8 9 9 8 8 8 9 9 10 10 9 8 7 6 6 7 7 7 7 8 8 8 8 8 8 9 9 9 9 8 6 5 5 6 7 8 10 11 10 10 10 10 10 10 11 11 11 11 11 11 13 14 16 17 19 19 20 20 19 20 21 22 22 22 22 22 21 22 22
7 6 6 6 6 7 7 7 7 8 8 7 7 6 6 6 6 7 8 8 8 8 8 9 9 9 10 9 9 8 7 7 7 7 7 7 7 7 8 8 8 9 10 10 10 10 10 9 6 4 3 3 5 7 8 8 9 9 9 9 10 10 11 11 12 13 14 15 17 18 20 20 21 20 19 18 19 20 21 21 21 20 21 21 22 23
6 6 5 6 6 6 7 7 8 8 8 7 7 6 6 7 7 7 7 7 8 8 8 8 8 8 9 9 9 9 8 8 8 7 7 7 7 7 8 8 8 9 10 10 10 10 10 10 8 5 3 1 1 4 6 7 9 10 10 10 11 12 13 14 15 16 17 18 19 20 21 21 21 20 18 17 17 18 19 19 19 20 20 22 23 24
Wind_Direction
246 250 253 258 266 269 256 230 213 203 198 195 193 192 190 189 189 190 190 188 186 185 184 184 183 182 182 180 178 175 172 170 168 167 167 169 170 173 176 178 181 186 191 194 179 94 81 77 66 48 28 11 357 348 340 335 334 337 345 0 20 35 40 38 32 26 21 17 13 10 8 6 3 0 356 352 347 342 339 335 331 329 327 324 322 321
241 247 250 253 258 262 255 232 213 203 198 195 193 192 190 189 188 189 189 190 189 188 187 186 185 184 183 182 181 179 177 176 175 175 176 178 181 183 185 187 190 195 200 201 194 175 150 119 72 29 6 352 342 335 329 325 326 332 347 12 35 42 40 33 26 20 15 11 8 6 4 2 0 358 355 352 348 345 341 338 335 333 330 327 325 322
235 241 244 247 249 252 249 233 216 206 201 197 195 193 191 190 189 190 190 190 190 190 189 188 187 186 185 184 183 182 181 180 179 180 182 184 185 186 186 187 189 194 197 197 190 180 168 154 74 6 353 343 336 330 324 321 323 332 358 34 44 39 30 22 16 11 7 5 2 360 358 356 355 354 352 350 348 346 344 341 339 336 333 330 327 323
230 235 238 240 241 244 246 236 220 209 204 203 201 199 195 193 192 192 192 191 190 190 190 190 189 188 187 186 186 185 184 182 182 183 185 186 187 186 184 185 186 191 196 195 190 184 177 169 103 8 356 349 341 335 330 326 328 343 26 46 39 27 16 9 6 3 1 359 356 354 352 351 350 349 348 347 347 346 344 343 341 338 336 333 330 326
229 232 235 235 233 231 234 234 223 213 207 208 209 207 204 199 196 194 193 192 191 191 191 191 191 190 189 188 187 186 185 183 184 185 187 187 186 184 183 184 188 192 196 196 193 188 184 175 141 35 7 354 345 339 334 332 336 5 43 38 23 10 2 358 357 355 355 353 351 349 347 345 344 344 343 343 343 343 343 342 341 340 338 336 333 330
228 231 234 233 228 223 219 220 218 212 206 205 208 210 209 206 202 198 195 193 192 192 191 191 191 191 191 189 187 185 184 183 184 185 186 185 184 183 186 189 193 196 198 197 195 192 188 180 169 162 214 307 314 313 312 310 302 312 38 13 358 351 348 346 346 345 345 344 344 342 340 339 338 338 339 339 339 339 340 340 340 340 339 337 335 332
228 232 234 233 229 222 214 209 209 207 203 201 202 204 207 208 207 205 203 201 198 196 194 192 192 191 189 188 185 183 181 181 182 184 184 184 185 187 191 195 198 198 198 197 196 194 192 189 188 192 202 214 228 239 243 238 229 222 232 271 301 313 320 324 326 329 331 332 333 333 332 332 333 334 334 335 335 336 336 337 338 339 338 337 335 333
226 231 235 234 229 223 217 211 205 203 204 205 205 205 205 207 210 212 212 210 206 201 197 194 192 190 187 185 182 180 178 179 180 183 185 186 188 192 196 198 198 197 197 197 198 199 200 200 201 203 207 212 218 222 224 222 220 221 230 244 260 276 286 295 302 309 313 317 320 322 324 326 328 329 330 331 332 333 334 335 336 336 336 334 333 331
221 227 232 234 227 219 216 218 212 203 203 209 214 216 213 211 210 212 214 212 208 203 198 194 191 189 187 184 181 179 178 179 181 183 187 190 192 195 196 196 196 195 196 198 201 205 209 211 212 213 215 217 219 221 222 221 220 222 229 241 253 264 273 281 289 296 301 305 309 313 316 320 323 325 327 329 330 331 332 332 332 331 330 329 329 328
207 212 218 225 222 214 209 217 218 210 201 204 212 218 217 210 205 203 204 205 204 200 196 192 190 189 188 186 183 180 178 178 180 183 187 192 195 195 195 194 193 194 196 199 203 209 214 218 220 220 220 219 218 218 217 216 217 220 230 241 254 266 274 281 286 291 295 298 301 305 309 313 316 319 323 326 327 327 327 327 326 325 325 324 324 324
181 185 183 183 191 196 199 208 214 213 204 202 209 214 213 207 200 194 191 194 196 195 193 192 191 191 190 188 184 181 179 178 179 181 186 191 194 196 196 195 194 195 196 200 204 208 212 214 215 214 213 210 208 207 206 206 211 221 236 252 266 275 282 284 286 288 290 293 295 297 300 302 305 310 314 317 317 316 317 318 318 319 320 320 321 321
151 156 153 138 136 154 177 193 204 207 204 206 213 218 215 204 198 192 187 187 188 190 192 193 194 193 192 188 184 182 183 181 179 180 184 188 191 193 193 193 194 194 194 195 197 200 201 201 200 200 200 199 198 198 200 206 217 234 254 270 280 286 288 289 290 291 291 291 291 289 288 287 289 294 299 302 304 305 307 310 312 314 316 318 319 319
145 147 138 116 106 114 138 161 181 192 195 202 212 218 214 203 197 192 188 185 186 189 192 195 196 196 193 188 182 179 180 181 180 180 182 183 184 185 186 187 186 185 185 185 186 188 190 192 194 197 199 201 204 207 213 224 238 254 270 281 287 293 296 298 300 300 299 294 289 284 280 278 279 282 288 292 296 300 303 307 310 312 314 315 316 317
129 140 133 108 95 94 107 121 132 144 163 189 207 215 211 200 193 189 186 184 186 190 196 199 198 192 189 184 179 175 175 175 176 176 175 174 175 178 181 182 181 179 179 179 181 184 187 191 199 209 215 222 230 237 243 250 258 265 273 280 287 296 304 311 313 310 305 298 291 284 281 280 281 285 290 295 299 303 306 309 312 313 314 314 314 314
111 115 109 97 87 85 92 104 111 119 141 174 196 206 202 194 190 186 179 179 183 188 193 194 190 180 172 169 168 168 168 168 168 168 168 169 172 176 178 180 180 179 179 180 183 187 191 196 202 213 225 238 247 254 256 256 254 254 257 264 279 295 308 312 313 311 307 304 299 294 292 291 293 297 303 308 312 315 316 317 317 316 315 313 314 315
116 115 110 104 91 83 87 97 101 104 115 148 172 185 191 197 195 183 168 171 176 180 179 175 171 170 172 170 163 160 162 164 166 168 168 169 173 176 177 179 182 183 183 187 190 192 195 202 211 221 231 239 244 245 241 232 224 223 237 259 281 296 302 305 306 307 310 311 312 311 311 310 311 315 318 321 324 326 326 325 323 320 317 318 319 319
113 113 112 106 95 85 84 90 97 102 103 111 131 175 203 205 206 201 186 185 181 178 177 172 169 169 178 178 174 167 166 166 166 166 166 168 173 179 182 184 185 185 187 193 195 193 195 202 213 221 222 220 216 211 206 199 200 219 249 270 283 291 293 294 298 306 316 320 322 324 325 325 323 322 321 321 322 324 325 325 324 321 318 318 318 318
94 98 103 104 98 88 82 79 83 91 97 92 100 123 146 167 191 201 198 191 184 180 180 178 178 175 166 168 177 180 174 171 167 164 164 168 176 186 191 197 198 195 191 186 181 177 177 178 182 185 184 186 187 188 189 196 218 248 265 272 277 282 286 291 300 311 315 318 319 320 322 323 322 319 316 313 312 312 312 314 317 318 316 315 316 316
69 79 87 95 98 94 84 75 71 70 71 76 87 98 105 119 144 161 159 150 147 150 159 163 167 165 156 149 160 171 176 175 170 167 170 175 188 199 204 212 216 214 195 167 157 157 157 157 157 157 155 165 183 201 220 241 256 265 268 270 271 276 288 298 302 303 304 305 307 310 313 316 317 317 315 311 308 306 304 304 306 308 309 310 311 312
55 57 62 79 92 93 84 74 67 64 66 77 91 96 93 104 116 121 120 119 117 117 118 103 92 95 120 128 139 154 167 172 169 168 177 190 205 219 223 231 238 225 172 153 151 151 149 146 146 147 150 177 211 230 239 245 249 255 262 269 279 288 293 292 293 295 297 298 302 308 312 315 317 316 315 312 309 306 303 302 301 301 303 302 303 305
54 51 57 68 78 82 78 69 64 63 65 73 83 87 89 94 97 103 113 116 117 118 117 99 84 84 98 97 94 109 139 152 151 151 173 202 219 231 240 249 243 203 155 148 149 150 147 147 155 162 160 192 214 223 226 232 241 254 268 282 290 291 291 288 289 292 295 303 310 316 318 319 319 318 316 313 310 307 305 303 302 302 302 302 301 301
59 53 56 62 66 67 67 57 49 44 43 48 56 65 73 79 82 86 95 103 106 105 102 96 93 89 77 58 55 67 92 110 116 119 144 218 242 239 233 239 224 185 154 149 150 152 152 155 164 169 169 184 193 201 217 236 258 275 282 285 286 287 290 289 291 297 305 314 321 323 323 322 321 319 317 314 311 308 306 304 304 304 304 304 302 301
56 48 43 42 43 45 43 38 32 25 20 21 30 40 48 61 71 76 80 83 86 90 94 99 95 59 25 32 41 50 56 74 101 126 161 218 235 232 218 215 202 179 158 155 155 155 158 169 180 181 175 175 180 187 203 238 263 275 281 283 286 285 286 290 298 308 317 322 324 325 324 323 322 320 318 315 312 310 307 306 306 306 306 305 303 301
50 43 37 34 32 30 28 26 21 15 7 4 4 3 2 3 16 34 42 46 46 45 36 23 6 7 27 50 60 64 70 86 113 148 189 219 223 204 190 190 182 172 165 165 166 167 173 186 198 201 197 192 189 193 207 236 255 266 274 280 283 285 289 301 312 319 323 324 324 324 323 322 321 320 318 316 313 311 309 308 308 308 308 306 304 301
54 49 46 43 40 37 34 31 25 15 4 357 352 347 343 339 332 323 312 309 311 315 317 322 345 24 53 79 86 88 97 114 137 163 189 215 202 163 161 165 165 165 169 176 182 187 191 198 207 213 214 210 204 202 216 238 250 257 265 271 281 293 305 315 320 323 323 323 322 322 321 320 320 319 317 316 314 312 311 310 310 310 310 307 304 300
59 57 56 55 53 52 50 47 42 34 24 11 357 343 336 336 333 329 325 322 321 323 328 349 34 73 95 106 101 97 102 114 134 159 180 195 174 143 145 154 162 170 175 185 195 201 203 202 207 213 216 213 210 211 220 237 252 261 267 278 291 303 310 316 318 320 320 320 319 319 318 318 317 317 316 316 314 313 312 312 312 312 311 309 305 301
59 58 56 57 58 58 59 57 56 55 53 51 45 36 290 242 251 88 75 71 57 82 172 146 135 135 138 126 110 103 109 110 116 144 176 180 162 138 125 144 174 193 192 199 206 209 209 205 206 209 211 209 208 210 220 236 254 269 278 288 297 302 306 311 314 316 316 317 316 316 316 316 316 316 315 315 314 314 313 314 314 315 314 312 308 305
60 59 58 59 64 69 70 66 64 61 59 61 73 101 129 147 138 115 93 107 138 169 179 167 155 147 145 128 116 114 117 108 92 100 171 163 132 111 98 125 225 261 256 236 227 223 220 216 211 209 209 208 208 213 230 250 264 275 282 289 294 299 303 307 310 312 313 313 313 313 314 314 315 315 315 315 315 315 315 317 318 318 317 316 315 312
70 68 69 76 86 92 90 80 72 65 61 64 76 95 112 123 115 100 89 109 133 147 153 157 155 147 139 129 125 120 111 87 62 48 149 136 97 86 84 63 305 286 273 264 252 241 233 226 220 215 214 216 221 233 249 262 270 275 279 285 291 297 302 306 307 308 308 308 309 310 312 314 316 316 316 316 317 318 319 322 324 324 323 322 320 318
93 99 101 104 109 110 106 96 84 76 72 73 78 86 93 99 100 98 100 109 115 115 113 112 117 124 128 126 119 104 81 57 44 32 21 65 71 68 65 36 307 281 279 286 285 267 241 225 217 214 215 224 237 252 263 272 275 278 282 287 293 298 302 303 304 304 304 305 307 310 313 315 317 319 319 321 323 325 327 329 330 330 329 327 324 323
95 100 102 104 106 107 105 98 90 84 79 78 78 78 77 79 82 86 90 94 98 99 97 88 84 89 104 114 108 82 52 46 42 36 35 54 63 63 46 29 354 324 311 319 350 334 264 234 210 203 212 230 253 266 275 286 290 290 292 294 297 300 302 303 303 303 304 306 309 312 316 319 321 324 327 329 332 333 335 335 334 333 332 329 327 326
95 97 97 97 97 96 92 87 83 78 73 70 67 65 64 63 65 67 70 75 81 86 86 81 75 73 76 83 91 91 73 56 51 45 28 49 52 42 22 15 10 359 334 295 280 289 271 299 272 229 237 261 276 283 286 293 296 298 300 301 302 303 305 305 306 307 309 312 315 318 322 325 329 332 334 336 337 338 337 336 335 334 332 329 327 326
94 93 91 88 86 83 78 75 71 67 63 58 54 51 49 49 49 50 53 57 63 69 71 69 66 65 68 75 82 85 78 62 52 42 8 19 31 26 6 3 6 3 336 295 281 278 273 293 303 297 288 288 290 293 296 299 302 304 306 308 309 309 310 312 313 315 317 320 324 326 329 332 334 335 336 336 336 336 335 333 332 331 330 328 326 325
90 86 82 79 75 72 69 67 63 58 53 48 44 41 41 41 41 42 43 44 47 52 57 54 53 55 62 72 82 85 77 57 38 15 346 353 10 20 5 356 345 333 323 304 288 277 271 273 287 299 301 300 300 302 305 308 311 312 314 315 316 316 316 318 319 321 324 327 330 332 333 334 334 333 332 333 333 332 331 329 329 330 330 329 327 325
83 78 72 69 66 63 61 59 55 51 46 43 41 40 39 39 40 42 44 44 44 44 44 41 40 40 48 61 68 65 46 25 4 341 324 329 339 345 335 308 293 304 312 310 304 292 279 279 289 301 307 310 309 308 311 317 320 320 319 316 315 315 317 320 323 325 327 329 330 330 331 330 329 328 328 329 329 330 329 329 331 333 335 335 332 329
74 68 62 59 56 54 52 49 47 44 43 42 42 41 40 41 42 44 48 54 60 64 64 61 45 29 24 34 38 33 13 347 327 309 298 296 302 307 303 287 284 290 299 303 307 307 301 298 299 302 304 306 308 310 314 318 321 318 314 312 312 313 317 322 325 326 326 326 325 325 325 325 324 324 324 325 327 329 330 332 336 341 344 343 341 338
68 62 56 52 49 47 45 43 41 40 41 41 42 43 42 42 43 45 50 59 75 94 102 101 92 77 50 21 10 5 354 338 314 282 270 277 282 284 282 277 277 279 281 284 292 297 298 297 299 298 294 289 292 302 310 313 312 310 307 309 312 315 318 322 324 323 321 320 319 319 320 320 321 322 324 327 330 333 335 339 343 346 348 348 348 346
63 58 53 48 44 41 41 40 39 39 38 38 40 42 43 44 44 45 47 53 66 85 100 107 106 96 80 68 50 28 358 331 280 254 249 260 269 272 270 266 262 260 263 265 270 275 278 282 288 292 288 284 285 290 297 302 304 304 305 309 312 314 315 317 318 317 315 314 314 315 316 319 321 324 328 333 336 338 339 341 345 348 350 349 348 348
61 56 50 44 40 36 35 36 35 34 34 36 37 39 42 45 47 46 46 48 51 57 60 60 63 67 72 78 83 88 89 94 214 232 236 248 263 270 273 269 263 256 253 254 258 261 264 267 270 274 281 286 288 290 291 294 296 299 303 307 308 308 309 311 311 310 310 310 312 314 317 321 325 330 334 337 339 339 339 340 342 345 348 347 346 344
58 53 47 41 35 30 29 29 28 27 29 31 33 35 40 45 47 46 46 46 47 49 46 42 39 41 51 67 81 94 100 106 115 141 183 208 265 288 291 286 276 263 252 248 250 254 258 260 263 267 272 278 283 286 288 287 290 294 300 302 302 303 305 306 306 306 307 310 313 316 320 325 330 334 336 337 337 337 338 338 340 342 345 345 343 341
54 48 42 35 28 24 22 20 20 23 27 31 37 41 41 42 41 40 38 37 36 35 32 31 35 47 67 74 83 89 90 92 96 102 110 101 29 337 322 308 293 275 254 245 244 246 251 258 262 265 268 271 275 278 279 281 283 287 291 293 295 299 302 302 303 305 308 312 316 320 324 329 332 334 334 334 334 334 336 337 337 339 341 342 341 339
50 44 37 30 24 22 20 18 22 31 38 43 47 46 43 40 38 36 34 32 28 23 19 16 16 20 29 51 75 85 86 85 89 91 90 82 53 16 349 331 319 304 281 262 251 246 246 251 258 265 270 275 278 279 277 277 278 281 284 288 294 299 301 301 303 307 312 315 319 324 328 330 331 332 332 331 331 331 333 334 334 335 335 335 335 335
48 41 34 29 27 27 27 32 42 49 52 54 54 51 46 44 41 38 35 32 26 20 15 11 8 8 11 16 24 42 63 74 81 83 80 63 37 5 337 325 321 317 310 302 291 276 260 251 254 261 267 274 280 281 279 280 281 283 283 287 296 303 306 304 305 309 313 316 321 327 331 332 331 330 328 327 326 327 328 328 328 328 327 328 328 328
44 37 32 30 31 34 40 45 49 52 53 53 51 50 47 48 45 40 34 29 24 18 12 8 4 5 9 11 10 12 23 44 62 67 65 48 27 4 338 321 315 312 309 315 317 312 296 280 271 267 267 271 277 281 284 286 286 287 286 287 292 296 298 299 303 308 312 317 323 329 332 332 329 326 323 322 322 322 322 322 321 321 321 322 323 324
32 28 26 26 29 33 36 39 41 44 46 48 46 43 45 47 43 36 29 24 19 15 10 6 3 3 8 6 4 2 3 13 28 42 43 37 23 4 345 330 318 314 313 316 317 316 312 305 295 284 277 276 278 281 285 287 288 288 288 288 290 291 293 296 302 308 313 318 324 328 331 329 325 322 321 321 320 320 319 320 320 320 320 320 321 322
20 17 17 18 23 28 30 29 29 32 36 38 37 36 37 39 36 29 22 18 15 13 10 5 3 1 359 357 356 355 353 355 359 5 11 13 11 3 349 338 328 321 318 316 312 306 301 299 297 293 289 285 282 280 281 285 289 291 292 294 296 298 300 303 308 312 317 320 323 327 328 324 321 322 324 323 321 319 317 318 319 319 319 320 321 321
12 12 12 12 15 20 20 19 18 21 26 29 29 28 28 28 24 19 14 13 11 10 8 5 1 355 351 348 346 346 345 345 345 348 351 355 358 358 355 350 342 334 324 318 311 304 296 291 288 287 288 288 286 285 285 287 291 294 298 302 304 305 305 308 314 319 322 322 324 325 324 322 324 325 325 322 320 317 316 315 315 316 317 319 319 319
7 7 7 6 7 9 9 8 10 13 19 22 24 24 22 20 16 11 7 8 8 6 5 3 358 351 344 340 338 336 335 334 335 337 340 342 344 346 348 347 345 341 334 327 321 315 306 294 282 275 275 277 280 284 289 295 298 301 304 308 309 308 308 311 317 321 321 319 318 318 319 323 327 328 325 322 318 315 313 313 314 315 315 317 317 316
2 2 1 0 1 2 3 1 2 6 11 15 18 19 15 11 6 2 359 359 0 1 1 359 355 348 342 336 333 330 327 325 326 327 329 331 334 337 339 340 339 336 334 333 332 330 324 310 288 267 261 268 276 285 291 299 306 311 314 317 317 317 316 317 319 318 316 314 312 312 314 318 321 322 323 321 316 313 312 312 313 313 314 315 315 314
356 355 354 354 356 357 357 356 356 359 3 7 9 7 0 352 346 345 346 348 351 354 355 353 350 345 340 334 330 326 321 320 319 320 320 323 326 329 332 332 333 332 333 335 337 339 339 332 319 291 251 257 280 293 299 310 318 323 325 325 326 326 324 321 319 317 316 315 314 314 315 316 317 319 321 318 315 311 310 310 311 311 312 314 314 314
349 348 347 347 349 349 350 349 351 353 355 357 356 349 339 333 331 332 337 342 346 348 348 346 344 341 336 330 325 321 318 316 314 313 315 317 319 321 324 326 329 331 332 334 337 338 338 337 334 325 304 231 296 316 318 325 328 328 327 326 326 326 325 322 319 318 317 317 317 317 317 318 318 319 320 318 314 311 310 309 309 309 311 313 314 315